Location: Dompnac
(44.5644°N, 4.1026°E)
Time: 11:20:31
(UTC+00:00)

Cosmos 494 Rocket - Pass Details

Date: 19 September 2020
Orbit: 741 x 771 km, 74.1° (Epoch: 29 October)

Event Time Altitude Azimuth Distance (km) Brightness Sun altitude
Rises 19:17:05 0° 344° (NNW) 3,244 7.8 -16.7°
Reaches altitude 10° 19:19:35 10° 352° (N) 2,317 6.8 -17.2°
Maximum altitude 19:24:34 42° 62° (ENE) 1,099 4.5 -18.0°
Enters shadow 19:26:08 33° 103° (ESE) 1,272 4.6 -18.3°
